Regional Weather Roundup
Issued by NWS Newport/Morehead, NC

Current Version | Previous Version | Graphics & Text | Print | Product List | Glossary On
Versions: 1 2 3 4 5 6 7 8 9 10 11 12 13 14 15 16 17 18 19 20 21 22 23 24 25 26 27 28 29 30 31 32 33 34 35 36 37 38 39 40 41 42 43 44 45 46 47 48 49 50
000 ASUS42 KMHX 111225 RWRMHX WEATHER ROUNDUP FOR EASTERN NORTH CAROLINA NATIONAL WEATHER SERVICE NEWPORT/MOREHEAD CITY NC 700 AM EST THU FEB 11 2016 NOTE: "FAIR" INDICATES FEW OR NO CLOUDS BELOW 12,000 FEET WITH NO SIGNIFICANT WEATHER AND/OR OBSTRUCTIONS TO VISIBILITY NCZ015>017-031-032-045>047-102-103-111300- NORTH COAST CITY SKY/WX TMP DP RH WIND PRES REMARKS EDENTON CLEAR 27 11 51 W14 30.18R WCI 16 ELIZABETH CITY CLEAR 23 9 55 W8 30.15R KITTY HAWK SUNNY 27 8 45 W13G24 30.12R WCI 16 MANTEO CLEAR 27 8 44 NW10G22 30.15R WCI 17 $$ NCZ045>047-081-094-103-104-111300- CENTRAL COAST CITY SKY/WX TMP DP RH WIND PRES REMARKS FRISCO CLEAR 29 13 51 NW10G21 30.16R WCI 20 SWANQUARTER N/A 27 N/A N/A NW6G16 30.15S $$ NCZ095-097-098-100-101-111300- SOUTHERN COAST CITY SKY/WX TMP DP RH WIND PRES REMARKS BEAUFORT CLEAR 28 13 53 NW17 30.17S WCI 16 CEDAR ISLAND N/A 28 N/A N/A W9G23 30.21S JACKSONVILLE PTCLDY 25 13 60 N7 30.17F PINEY ISLAND SUNNY N/A N/A N/A NW14 30.17R WILMINGTON CLEAR 26 13 57 N7 30.19R $$ NCZ011>013-027>030-043-044-078>080-089-090>093-098-111300- COASTAL PLAIN CITY SKY/WX TMP DP RH WIND PRES REMARKS AHOSKIE CLEAR 22 8 55 CALM 30.18R CLINTON CLEAR 24 13 62 NW3 30.20S ELIZABETHTOWN CLEAR 23 15 71 CALM 30.20R GOLDSBORO PTCLDY 25 7 46 W3 30.17 GREENVILLE CLEAR 27 9 46 NW8 30.20R HAVELOCK CLEAR 26 11 52 NW10 30.19R WCI 16 KENANSVILLE CLEAR 24 12 61 CALM 30.20S KINSTON PTCLDY 25 10 54 NW3 30.19R NEW BERN PTCLDY 25 10 53 W8 30.20R RICHLANDS CLEAR 25 10 54 CALM 30.18F ROCKY MOUNT PTCLDY 23 6 48 W5 30.18R WASHINGTON CLEAR 25 10 52 NW6 30.19R WHITEVILLE PTCLDY 24 20 84 CALM 30.20R $$ AMZ130-135-150-152-154-156-158-170-250-252-270-ANZ085-086-088-633-658-670-111300- MARINE OBSERVATIONS STATION/POSITION TIME TEMP WIND PRES WAVE SWELL AIR SEA DIR/SP/G HT/PER HT/PER (UTC) (F) (DEG/KT/KT) (MB) (FT/S) (FT/S) CHESAPEAKE LIGHT 1200 27 290/ 18/ 21 1019.7 64 E VA BEACH 1150 32 48 300/ 19/ 27 1017.2 8/ 7 2/13 DUCK 1200 26 290/ 20/ 25 1019.8 2 E DUCK 1111 44 N/A 3/12 2/12 OREGON INLET 1200 27 42 280/ 18/ 23 1020.3 13E OREGON INLT 1100 47 N/A 5/ 5 2/12 HATTERAS CG 1200 30 46 300/ 22/ 25 1020.6 DIAMOND BUOY 1150 34 71 310/ 23/ 33 1019.9 7/ 8 2/11 CAPE LOOKOUT NOT AVBL BEAUFORT LAB 1200 28 44 340/ 12/ 19 1020.3 30 SE NEW RVR IN 1208 36 59 1021.2 30 SE NEW RVR IN 1125 58 N/A 7/ 8 2/13 27 SE WRIGHTSVLE 1208 37 61 360/ 16/ 23 1020.3 5 SE WRIGHTSVLE NOT AVBL 225 S CAPE HAT 1150 53 68 300/ 25/ 31 N/A 14/10 8/10 41 SE CHARLESTON 1150 43 63 300/ 21/ 25 1023.0 8/ 6 2/15 $$

USA.gov is the U.S. government's official web portal to all federal, state and local government web resources and services.